[[[{"header":{"parameterUnit":"kt","parameterCategory":2,"dx":1,"dy":1,"la1":30.253999710083008,"la2":30.299108505249023,"lo1":-89.0895004272461,"lo2":-89.04439544677734,"nx":28,"ny":28,"refTime":"2022-10-28T21:00:00:Z","depth":0,"parameterNumber":1,"parameterNumberName":"U-component_of_WINDS"},"data":[-9.4499,-9.4684,-9.4687,-9.4902,-9.494,-9.5087,-9.514,-9.521,-9.5267,-9.5445,-9.5548,-9.5571,-9.5628,-9.5753,-9.5866,-9.5873,-9.5919,-9.5986,-9.5982,-9.5683,-9.5642,-9.5602,-9.5555,-9.5997,-9.5998,-9.6289,-9.6291,-9.6293,-9.4286,-9.4326,-9.444,-9.455,-9.4648,-9.4587,-9.4671,-9.4756,-9.489,-9.4961,-9.5062,-9.5219,-9.5343,-9.5378,-9.5498,-9.5588,-9.5564,-9.562,-9.561,-9.5619,-9.5302,-9.5252,-9.5637,-9.5637,-9.5637,-9.5637,-9.5637,-9.5637,-9.3899,-9.4011,-9.4077,-9.4199,-9.4256,-9.4331,-9.4438,-9.446,-9.4572,-9.4694,-9.4675,-9.4826,-9.4897,-9.5041,-9.509,-9.5209,-9.5146,-9.5207,-9.5221,-9.5235,-9.5251,-9.4828,-9.523,-9.5229,-9.5228,-9.5227,-9.5226,0,-9.3614,-9.3607,-9.3714,-9.3823,-9.3912,-9.3997,-9.4074,-9.4141,-9.4124,-9.4217,-9.4352,-9.4429,-9.4585,-9.4711,-9.4823,-9.486,-9.48,-9.4796,-9.4837,-9.4845,-9.4841,-9.4842,-9.432,-9.4782,-9.4778,-9.4775,-9.4773,-9.4772,-9.3219,-9.3349,-9.3417,-9.3493,-9.3533,-9.3656,-9.3729,-9.3704,-9.3783,-9.3875,-9.3975,-9.4102,-9.4201,-9.4418,-9.444,-9.4556,-9.4527,-9.4703,-9.4543,-9.4549,-9.4525,-9.4515,-9.4528,-9.4732,-9.4737,-9.4741,-9.4744,0,-9.2997,-9.2993,-9.3194,-9.3247,-9.3264,-9.3403,-9.3448,-9.3559,-9.3566,-9.372,-9.3754,-9.3765,-9.3898,-9.3891,-9.4041,-9.4033,-9.4264,-9.4236,-9.424,-9.4232,-9.4387,-9.4371,-9.4894,-9.4961,-9.4507,-9.4511,-9.4515,0,-9.2656,-9.2827,-9.2811,-9.2927,-9.3119,-9.3085,-9.3276,-9.3299,-9.3355,-9.3475,-9.3406,-9.3521,-9.3493,-9.3609,-9.3597,-9.3785,-9.3814,-9.3817,-9.3811,-9.382,-9.3819,-9.3856,-9.3833,-9.3796,-9.3793,-9.3791,-9.3788,0,-9.2302,-9.2495,-9.2684,-9.2727,-9.2797,-9.2888,-9.2922,-9.2983,-9.3054,-9.3146,-9.3191,-9.3302,-9.3362,-9.345,-9.3432,-9.3323,-9.3662,-9.3509,-9.3665,-9.3666,-9.3734,-9.3729,-9.4201,-9.3785,-9.3784,-9.3783,-9.3782,0,-9.2022,-9.2113,-9.2389,-9.2445,-9.2496,-9.2622,-9.2725,-9.283,-9.2899,-9.2898,-9.297,-9.292,-9.3083,-9.2933,-9.3158,-9.3021,-9.3085,-9.3104,-9.3115,-9.3123,-9.2952,-9.3213,-9.3667,-9.3712,-9.314,-9.3135,-9.313,0,-9.1619,-9.1894,-9.1863,-9.2127,-9.2251,-9.216,-9.2301,-9.2362,-9.2371,-9.248,-9.2491,-9.2615,-9.25,-9.2536,-9.2651,-9.2665,-9.2844,-9.2642,-9.2799,-9.2805,-9.2778,-9.3197,-9.3263,-9.357,-9.3062,-9.3069,-9.3074,0,-9.1302,-9.1381,-9.143,-9.1475,-9.1547,-9.1651,-9.1812,-9.1925,-9.1998,-9.2075,-9.2208,-9.2384,-9.2303,-9.2364,-9.2333,-9.2452,-9.2723,-9.2349,-9.235,-9.2414,-9.3027,-9.3089,-9.3141,-9.2676,-9.2685,-9.2691,-9.302,0,-9.0875,-9.101,-9.1142,-9.1242,-9.132,-9.1484,-9.1467,-9.1552,-9.1513,-9.1516,-9.1713,-9.1758,-9.1873,-9.1929,-9.1892,-9.2166,-9.2117,-9.2029,-9.1875,-9.2152,-9.2259,-9.2303,-9.1717,-9.1712,-9.1708,-9.1705,0,0,-9.0486,-9.0677,-9.0634,-9.0786,-9.0848,-9.0746,-9.0922,-9.0972,-9.1073,-9.1119,-9.1035,-9.1287,-9.1326,-9.1566,-9.1651,-9.1699,-9.1746,-9.1648,-9.2021,-9.2056,-9.2089,-9.2204,-9.2251,-9.1698,-9.1697,-9.1696,-9.1694,0,-9.0323,-9.0364,-9.0537,-9.0585,-9.0654,-9.0647,-9.069,-9.074,-9.0749,-9.094,-9.0851,-9.0968,-9.1168,-9.1221,-9.1274,-9.1621,-9.1546,-9.1658,-9.1848,-9.1983,-9.2023,-9.2059,-9.2181,-9.2225,-9.1685,-9.1686,-9.1686,0,-9.0005,-9.0041,-9.0121,-9.0256,-9.03,-9.043,-9.0266,-9.041,-9.0506,-9.0385,-9.0574,-9.0597,-9.0666,-9.0895,-9.0996,-9.0921,-9.1365,-9.1222,-9.1246,-9.1255,-9.1384,-9.1433,-9.1476,-9.0904,-9.0901,-9.0899,0,0,-8.9867,-8.999,-9.0016,-9.0219,-9.0253,-9.0244,-9.031,-9.0275,-9.0337,-9.0363,-9.0387,-9.0452,-9.0568,-9.0645,-9.0753,-9.1007,-9.1017,-9.1126,-9.1163,-9.1193,-9.1219,-9.1356,-9.1404,-9.0889,-9.0888,-9.0888,0,0,-8.9799,-8.9836,-8.9783,-9.0016,-9.0078,-9.0116,-9.0242,-9.0178,-9.0271,-9.0249,-9.0197,-9.0212,-9.0426,-9.045,-9.0318,-9.0697,-9.0546,-9.0577,-9.0671,-9.0718,-9.0754,-9.0741,-9.0153,0,0,0,0,0,-8.962,-8.9831,-8.9783,-8.9819,-8.9986,-9.0144,-9.0165,-9.0125,-9.0019,-9.012,-9.0131,-9.0045,-9.0368,-9.025,-9.0287,-9.0433,-9.0759,-9.0782,-9.0804,-9.0985,-9.1033,-9.1074,0,0,0,0,0,0,-8.9633,-8.9677,-8.9777,-8.9824,-8.9862,-9.0135,-8.9947,-8.9942,-9.0007,-8.9988,-9.0046,-9.0047,-9.0017,-9.0228,-9.0263,-9.0402,-9.0141,-9.0768,-9.0787,-9.0805,-9.1001,-9.1041,-9.1075,0,0,0,0,0,-8.9644,-8.9679,-8.9958,-8.9821,-8.9854,-8.9852,-8.9938,-8.9933,-8.9982,-8.9997,-8.9995,-8.9946,-9.0022,-9.0048,-9.0249,-9.0387,-9.0117,-9.013,-9.0781,-9.0796,-9.081,-9.1021,0,0,0,0,0,0,-8.9652,-8.9676,-8.9964,-8.9972,-8.9736,-8.9835,-8.9849,-8.9925,-8.9986,-8.9987,-8.9894,-8.9878,-9.0028,-9.0047,-9.0068,-9.0384,-9.0098,-9.0111,-9.0119,-9.0792,-9.0804,-9.0815,0,0,0,0,0,0,-8.9656,-8.9684,-8.9968,-8.9863,-8.9859,-8.9821,-8.9833,-8.9997,-8.9989,-8.9879,-8.9868,-8.9886,-8.9998,-9.0048,-9.0063,-9.0321,-9.0083,-9.0095,-9.0104,-9.0109,-9.0802,-9.0812,0,0,0,0,0,0,-8.9667,-8.9691,-8.986,-8.9858,-8.9854,-8.9946,-8.9965,-9.0139,-8.9898,-8.9878,-8.9875,-8.9865,-9.0001,-9.0016,-9.0061,-9.0313,-9.0319,-9.0083,-9.0092,-9.0098,-9.0102,0,0,0,0,0,0,0,-8.9676,-8.9528,-8.9913,-8.9853,-8.9849,-9.005,-9.0053,-9.0055,-8.9896,-8.9887,-8.9878,-8.9869,-9.0011,-9.0025,-9.0039,-9.0306,0,0,-9.0082,-9.0088,0,0,0,0,0,0,0,0,-8.9518,-8.9526,-8.9914,-8.9915,-8.9917,-9.0051,-9.0053,-9.0055,-8.9894,-8.9887,-8.9879,-8.9873,-9.0015,-9.0026,-9.0037,0,0,0,0,0,0,0,0,0,0,0,0,0,0,0,-8.9914,-8.9915,0,-9.0051,-9.0053,-9.0054,-8.9893,-8.9887,-8.9881,-8.9875,-9.0018,-9.0027,-9.0036,0,0,0,0,0,0,0,0,0,0,0,0,0,0,0,0,0,0,0,0,0,0,0,0,0,0,0,0,0,0,0,0,0,0,0,0,0,0,0,0,0,0,0,0,0,0,0,0,0,0,0,0,0,0,0,0,0,0,0,0,0,0,0,0,0,0,0,0,0]}],[{"header":{"parameterUnit":"kt","parameterCategory":2,"dx":1,"dy":1,"la1":30.253999710083008,"la2":30.299108505249023,"lo1":-89.0895004272461,"lo2":-89.04439544677734,"nx":28,"ny":28,"refTime":"2022-10-28T21:00:00:Z","depth":0,"parameterNumber":2,"parameterNumberName":"V-component_of_WINDS"},"data":[2.5021,2.4965,2.4908,2.4816,2.4749,2.4674,2.4629,2.4563,2.4495,2.4397,2.4329,2.4262,2.4167,2.4069,2.399,2.396,2.393,2.3953,2.3914,2.3869,2.3858,2.3848,2.3859,2.3948,2.3948,2.397,2.397,2.3971,2.4994,2.4928,2.4863,2.476,2.4703,2.4647,2.4559,2.4513,2.4447,2.4363,2.4293,2.42,2.4117,2.4012,2.3921,2.3889,2.3855,2.3868,2.3869,2.3854,2.3803,2.3816,2.3897,2.3897,2.3897,2.3897,2.3897,2.3897,2.4927,2.4896,2.4801,2.4729,2.4661,2.4592,2.455,2.447,2.4402,2.4304,2.4244,2.4167,2.4068,2.3927,2.3864,2.3799,2.3772,2.3767,2.3765,2.3765,2.3774,2.375,2.378,2.378,2.3779,2.3779,2.3779,0,2.486,2.4815,2.4748,2.4665,2.4608,2.4536,2.446,2.4432,2.431,2.4259,2.4179,2.4122,2.4009,2.3924,2.3824,2.3758,2.3689,2.3675,2.3671,2.3699,2.3737,2.3715,2.3634,2.3674,2.3673,2.3672,2.3672,2.3671,2.4789,2.4759,2.463,2.4591,2.4535,2.4472,2.4422,2.4317,2.4268,2.4155,2.413,2.4045,2.3971,2.385,2.375,2.3663,2.3628,2.365,2.3614,2.3643,2.3626,2.3629,2.3625,2.3659,2.3661,2.3662,2.3663,0,2.4753,2.4658,2.4592,2.4466,2.4433,2.4406,2.4296,2.4258,2.4182,2.4119,2.4097,2.3977,2.3898,2.3794,2.3682,2.363,2.3577,2.3546,2.3611,2.3599,2.3608,2.3608,2.3654,2.3654,2.3561,2.3562,2.3563,0,2.4654,2.4618,2.4477,2.4444,2.44,2.4295,2.4253,2.4183,2.4097,2.4046,2.3954,2.3907,2.3781,2.3718,2.3641,2.3579,2.3558,2.3514,2.3493,2.3521,2.3527,2.3491,2.3486,2.345,2.3449,2.3449,2.3449,0,2.4609,2.449,2.4436,2.4393,2.4253,2.4229,2.4169,2.4072,2.4023,2.3941,2.3908,2.382,2.3771,2.3704,2.3605,2.3585,2.3528,2.3479,2.3482,2.3485,2.3474,2.3476,2.3545,2.3449,2.3449,2.3449,2.3449,0,2.4513,2.4437,2.4373,2.4254,2.4227,2.419,2.4098,2.4042,2.3946,2.3895,2.383,2.3755,2.3694,2.3653,2.3566,2.3567,2.3524,2.3476,2.3474,2.3461,2.3418,2.3469,2.3546,2.355,2.3451,2.3451,2.345,0,2.4487,2.4396,2.4305,2.4245,2.4189,2.4089,2.4045,2.3963,2.3892,2.3832,2.3751,2.3682,2.363,2.3593,2.3564,2.3477,2.3476,2.3474,2.3383,2.3381,2.3412,2.3482,2.3519,2.3541,2.3449,2.3449,2.3449,0,2.4454,2.4286,2.4282,2.4228,2.4104,2.4056,2.4006,2.3915,2.388,2.3797,2.375,2.365,2.3605,2.3546,2.3474,2.3449,2.3473,2.3404,2.34,2.3419,2.344,2.3476,2.348,2.343,2.343,2.343,2.3449,0,2.433,2.4272,2.4256,2.4142,2.4088,2.4044,2.3936,2.3894,2.3832,2.3758,2.3687,2.359,2.3494,2.3471,2.3409,2.3386,2.3373,2.3326,2.3277,2.3324,2.3327,2.3329,2.3281,2.3279,2.3277,2.3276,0,0,2.4328,2.4243,2.4144,2.4093,2.4041,2.3938,2.3901,2.3837,2.3712,2.3678,2.365,2.3495,2.3416,2.3341,2.3348,2.3309,2.3294,2.3281,2.3303,2.3306,2.3309,2.3315,2.3318,2.3273,2.3272,2.3272,2.3271,0,2.426,2.4189,2.4155,2.4086,2.3981,2.3904,2.3896,2.3772,2.3722,2.3654,2.3566,2.351,2.3388,2.3316,2.3263,2.3288,2.3223,2.3267,2.3318,2.3289,2.3295,2.33,2.3307,2.3311,2.3267,2.3267,2.3267,0,2.4208,2.4119,2.4092,2.3971,2.39,2.3844,2.3767,2.3711,2.3666,2.3551,2.3484,2.3415,2.3309,2.3253,2.3223,2.3196,2.3165,2.3155,2.3163,2.3157,2.3123,2.3131,2.3137,2.3052,2.3052,2.3052,0,0,2.4164,2.411,2.3979,2.3948,2.391,2.3796,2.3754,2.3688,2.3597,2.3561,2.3471,2.3383,2.331,2.3265,2.3191,2.3145,2.3113,2.3134,2.3144,2.3152,2.3151,2.312,2.3127,2.3051,2.3051,2.305,0,0,2.4142,2.3991,2.3945,2.3896,2.3815,2.3682,2.3666,2.3605,2.3528,2.352,2.3402,2.3373,2.3319,2.3253,2.3252,2.3171,2.3124,2.3122,2.3216,2.3227,2.3236,2.3253,2.3157,0,0,0,0,0,2.4017,2.401,2.397,2.3946,2.3791,2.3705,2.3684,2.3588,2.3558,2.3547,2.3462,2.3395,2.3228,2.3225,2.3201,2.3202,2.3037,2.3039,2.3042,2.3151,2.3164,2.3174,0,0,0,0,0,0,2.4007,2.3978,2.397,2.3839,2.3803,2.3704,2.3632,2.3605,2.3557,2.3545,2.3414,2.3391,2.3305,2.323,2.321,2.3213,2.3163,2.3038,2.304,2.3042,2.3155,2.3166,2.3175,0,0,0,0,0,2.3998,2.3974,2.3752,2.3838,2.3807,2.3678,2.3631,2.3609,2.3569,2.3436,2.3411,2.3501,2.3308,2.3284,2.3218,2.3225,2.3177,2.3169,2.3039,2.3041,2.3042,2.316,0,0,0,0,0,0,2.3992,2.3952,2.3744,2.3731,2.3834,2.3681,2.3655,2.3612,2.346,2.3436,2.3517,2.351,2.331,2.3291,2.3273,2.3235,2.3188,2.318,2.3176,2.304,2.3042,2.3043,0,0,0,0,0,0,2.3964,2.3941,2.3737,2.3737,2.3723,2.3685,2.3661,2.359,2.3459,2.3549,2.3539,2.3516,2.3335,2.3296,2.3281,2.3174,2.3196,2.3189,2.3184,2.3181,2.3042,2.3043,0,0,0,0,0,0,2.3952,2.3933,2.374,2.3729,2.3717,2.3561,2.362,2.3466,2.3464,2.3557,2.3461,2.3459,2.3342,2.3325,2.3288,2.3187,2.3177,2.3196,2.3191,2.3188,2.3185,0,0,0,0,0,0,0,2.3943,2.4096,2.3823,2.3723,2.3711,2.3609,2.3605,2.3601,2.3464,2.3462,2.3461,2.346,2.3236,2.3228,2.3221,2.3198,0,0,2.3196,2.3193,0,0,0,0,0,0,0,0,2.4102,2.4097,2.3822,2.3819,2.3817,2.3608,2.3605,2.3602,2.3463,2.3462,2.3461,2.346,2.3234,2.3228,2.3221,0,0,0,0,0,0,0,0,0,0,0,0,0,0,0,2.3822,2.382,0,2.3608,2.3605,2.3603,2.3463,2.3462,2.3461,2.3461,2.3232,2.3227,2.3222,0,0,0,0,0,0,0,0,0,0,0,0,0,0,0,0,0,0,0,0,0,0,0,0,0,0,0,0,0,0,0,0,0,0,0,0,0,0,0,0,0,0,0,0,0,0,0,0,0,0,0,0,0,0,0,0,0,0,0,0,0,0,0,0,0,0,0,0,0]}]]]